Regional Weather Roundup
Issued by NWS

Home | Current Version | Previous Version | Text Only | Print | Product List | Glossary Off
Versions: 1 2 3 4 5 6 7 8 9 10 11 12 13 14 15 16 17 18 19 20 21 22 23 24 25 26 27 28 29 30 31 32 33 34 35 36 37 38 39 40 41 42 43 44 45 46 47 48 49 50

000
ASUS43 KFSD 131702
RWRSD

WEATHER ROUNDUP FOR SOUTH DAKOTA
NATIONAL WEATHER SERVICE SIOUX FALLS SD
1100 AM CST SAT FEB 13 2016

NOTE: "FAIR" INDICATES FEW OR NO CLOUDS BELOW 12,000 FEET WITH NO
SIGNIFICANT WEATHER AND/OR OBSTRUCTIONS TO VISIBILITY.


SDZ001>005-009-010-012>017-131800-
NORTHWEST AND NORTH CENTRAL SOUTH DAKOTA

CITY           SKY/WX    TMP DP  RH WIND       PRES   REMARKS
BUFFALO          N/A     23  20  88 SE9       29.88F WCI  13
FAITH            N/A     19  15  84 SE21G28   30.00F WCI   3
MOBRIDGE       CLOUDY    14   8  77 SE22      30.15F WCI  -4
$$

SDZ012>016-024>037-041>051-057-063-072>074-131800-
SOUTHWEST AND SOUTH CENTRAL SOUTH DAKOTA

CITY           SKY/WX    TMP DP  RH WIND       PRES   REMARKS
RAPID CTY ARPT CLOUDY    36  31  82 S9        29.93F
PIERRE         CLOUDY    20  14  77 SE23      30.16F WCI   3
CUSTER         CLOUDY    41  28  60 VRB5      29.92F
ELLSWORTH AFB  CLOUDY    35  32  88 SE7       29.92F WCI  29
PHILIP         CLOUDY    35  28  75 SE15      30.03F WCI  25
PINE RIDGE     CLOUDY    37  30  75 S14G21    30.00F
WINNER         FAIR      24  13  62 S25G32    30.17F WCI   8
$$

SDZ004>011-016>023-039-040-131800-
NORTHEAST SOUTH DAKOTA

CITY           SKY/WX    TMP DP  RH WIND       PRES   REMARKS
ABERDEEN       CLOUDY    10  -2  58 SE16      30.37F WCI  -7
WATERTOWN      CLOUDY     5  -7  57 SE18      30.37F WCI -15
BROOKINGS      CLOUDY     4  -6  63 SE13      30.41F WCI -13
SISSETON         N/A      2  -5  72 S17       30.45F WCI -18
$$

SDZ017-020-022-023-036>040-048>070-131800-
SOUTHEAST SOUTH DAKOTA

CITY           SKY/WX    TMP DP  RH WIND       PRES   REMARKS
SIOUX FALLS    CLOUDY     5  -4  66 SE13      30.47F WCI -12
HURON          CLOUDY     9  -1  64 SE21G28   30.37F WCI -11
MITCHELL       CLOUDY    10   2  69 SE20      30.40F WCI  -9
YANKTON        CLOUDY     9  -2  61 SE16      30.45F WCI  -9
$$

ABBREVIATIONS USED IN REMARKS
   TC - TEMPERATURE IN CELSIUS
  WCI - WIND CHILL INDEX
   HX - HEAT INDEX
  VSB - VISIBILITY




USA.gov is the U.S. government's official web portal to all federal, state and local government web resources and services.